[[{"header":{"parameterUnit":"m.s-1","parameterCategory":1,"la1":30.2991,"la2":30.254,"lo1":-89.0895,"lo2":-89.0444,"dy":0.0017,"dx":0.0017,"nx":28,"ny":28,"refTime":"2024-12-21T09:00:00:Z","depth":0,"parameterNumber":2,"parameterNumberName":"U-component_of_WINDS"},"data":[0,0,0,0,0,0,0,0,0,0,0,0,0,0,0,0,0,0,0,0,0,0,0,0,0,0,0,0,0,0,0,0,0,0,0,0,0,0,0,0,0,0,0,0,0,0,0,0,0,0,0,0,0,0,0,0,0,0,-1.7217,-1.7218,0,-1.7302,-1.7302,-1.7303,-1.7242,-1.7239,-1.7236,-1.7234,-1.7322,-1.7327,-1.7332,0,0,0,0,0,0,0,0,0,0,0,0,0,-1.7003,-1.7008,-1.7217,-1.7218,-1.7219,-1.7301,-1.7303,-1.7304,-1.7242,-1.7239,-1.7236,-1.7233,-1.7321,-1.7327,-1.7332,0,0,0,0,0,0,0,0,0,0,0,0,0,-1.7093,-1.7009,-1.7217,-1.7198,-1.7198,-1.7301,-1.7303,-1.7304,-1.7243,-1.7239,-1.7235,-1.7231,-1.7319,-1.7326,-1.7333,-1.746,0,0,-1.7356,-1.7359,0,0,0,0,0,0,0,0,-1.7088,-1.7101,-1.72,-1.72,-1.7199,-1.7257,-1.726,-1.7356,-1.7244,-1.7226,-1.7234,-1.7229,-1.7304,-1.7312,-1.7337,-1.7464,-1.7468,-1.7356,-1.7361,-1.7364,-1.7366,0,0,0,0,0,0,0,-1.7082,-1.7097,-1.725,-1.7202,-1.7201,-1.7186,-1.7194,-1.7278,-1.7287,-1.7227,-1.7223,-1.7234,-1.7303,-1.733,-1.7339,-1.7469,-1.7356,-1.7363,-1.7367,-1.737,-1.7705,-1.7709,0,0,0,0,0,0,-1.7077,-1.7092,-1.7248,-1.7253,-1.7132,-1.7193,-1.7202,-1.7243,-1.7286,-1.7288,-1.7237,-1.723,-1.732,-1.733,-1.7342,-1.7494,-1.7364,-1.7371,-1.7375,-1.77,-1.7706,-1.771,0,0,0,0,0,0,-1.7073,-1.7092,-1.7244,-1.7171,-1.719,-1.7201,-1.7247,-1.7246,-1.7274,-1.7293,-1.7295,-1.7263,-1.7317,-1.7331,-1.7431,-1.7496,-1.7374,-1.7381,-1.7695,-1.7702,-1.7708,-1.7799,0,0,0,0,0,0,-1.7067,-1.709,-1.7139,-1.7173,-1.7194,-1.7333,-1.7251,-1.7251,-1.7286,-1.7278,-1.7318,-1.7321,-1.7315,-1.742,-1.7438,-1.7504,-1.7386,-1.7689,-1.7698,-1.7706,-1.779,-1.7808,-1.7823,0,0,0,0,0,-1.7059,-1.7161,-1.7142,-1.7161,-1.7254,-1.7336,-1.7348,-1.7339,-1.7292,-1.7341,-1.7353,-1.732,-1.7485,-1.7431,-1.7451,-1.752,-1.7685,-1.7695,-1.7705,-1.7783,-1.7804,-1.7822,0,0,0,0,0,0,-1.7136,-1.7166,-1.7144,-1.726,-1.7296,-1.7326,-1.7387,-1.7362,-1.7413,-1.7403,-1.739,-1.7399,-1.7504,-1.7521,-1.746,-1.7644,-1.7578,-1.7592,-1.763,-1.765,-1.7667,-1.7661,-1.7393,0,0,0,0,0,-1.7165,-1.7229,-1.7252,-1.7352,-1.7371,-1.7376,-1.7411,-1.7401,-1.7438,-1.7453,-1.7473,-1.751,-1.7571,-1.7611,-1.7668,-1.7791,-1.7799,-1.7848,-1.7864,-1.7878,-1.7891,-1.7958,-1.798,-1.7744,-1.7743,-1.7743,0,0,-1.7229,-1.7253,-1.7294,-1.7368,-1.7395,-1.7461,-1.739,-1.7463,-1.7512,-1.7464,-1.756,-1.7575,-1.7616,-1.7729,-1.7779,-1.7746,-1.7958,-1.789,-1.7901,-1.7907,-1.7971,-1.7993,-1.8013,-1.775,-1.7749,-1.7748,0,0,-1.7379,-1.7403,-1.7489,-1.7517,-1.7558,-1.756,-1.7581,-1.7614,-1.7623,-1.7718,-1.7683,-1.7741,-1.7846,-1.7876,-1.7906,-1.8065,-1.8037,-1.8084,-1.8171,-1.8236,-1.8254,-1.8271,-1.8329,-1.835,-1.8097,-1.8097,-1.8097,0,-1.7452,-1.7551,-1.7537,-1.7613,-1.7646,-1.7604,-1.7692,-1.7719,-1.7777,-1.7802,-1.7763,-1.7893,-1.7918,-1.8037,-1.8076,-1.81,-1.8124,-1.8081,-1.8253,-1.8269,-1.8284,-1.834,-1.8361,-1.8102,-1.8102,-1.8101,-1.8101,0,-1.764,-1.7709,-1.7774,-1.783,-1.787,-1.7952,-1.795,-1.7993,-1.7978,-1.7984,-1.8082,-1.8109,-1.8171,-1.8198,-1.8184,-1.8315,-1.8293,-1.8254,-1.8188,-1.8313,-1.8364,-1.8385,-1.811,-1.8108,-1.8107,-1.8105,0,0,-1.7843,-1.7889,-1.7913,-1.7938,-1.7979,-1.8032,-1.8111,-1.817,-1.8208,-1.8248,-1.8315,-1.8403,-1.8367,-1.84,-1.839,-1.8447,-1.8572,-1.84,-1.8401,-1.8433,-1.8719,-1.8749,-1.8774,-1.8552,-1.8556,-1.8559,-1.8716,0,-1.7996,-1.8134,-1.8123,-1.8253,-1.8317,-1.8277,-1.8346,-1.8379,-1.8386,-1.8441,-1.8449,-1.8513,-1.846,-1.8479,-1.8534,-1.8546,-1.863,-1.8534,-1.8615,-1.8619,-1.8609,-1.8801,-1.8834,-1.898,-1.8736,-1.8739,-1.8741,0,-1.8194,-1.8241,-1.8378,-1.8409,-1.8435,-1.8497,-1.8551,-1.8603,-1.8639,-1.8641,-1.8677,-1.8656,-1.8736,-1.8665,-1.8776,-1.8711,-1.8743,-1.8753,-1.8759,-1.8768,-1.8689,-1.8817,-1.9026,-1.9049,-1.8773,-1.877,-1.8768,0,-1.833,-1.8427,-1.8521,-1.8544,-1.8582,-1.8627,-1.8645,-1.8676,-1.8713,-1.8759,-1.8782,-1.8837,-1.8868,-1.8911,-1.8906,-1.8855,-1.9018,-1.8947,-1.9023,-1.9023,-1.9061,-1.9059,-1.9281,-1.9079,-1.9078,-1.9078,-1.9077,0,-1.8503,-1.8589,-1.8583,-1.8642,-1.8736,-1.8722,-1.8816,-1.8829,-1.8857,-1.8917,-1.8885,-1.8942,-1.8931,-1.8988,-1.8984,-1.9076,-1.909,-1.9094,-1.9092,-1.9098,-1.9098,-1.9121,-1.9111,-1.9084,-1.9082,-1.9081,-1.908,0,-1.8673,-1.8672,-1.8772,-1.88,-1.8808,-1.8877,-1.8901,-1.8956,-1.8959,-1.9036,-1.9053,-1.906,-1.9125,-1.9123,-1.9198,-1.9195,-1.9309,-1.9294,-1.9297,-1.9295,-1.9371,-1.9364,-1.9616,-1.9649,-1.9424,-1.9426,-1.9428,0,-1.8785,-1.885,-1.8883,-1.8921,-1.8942,-1.9003,-1.904,-1.9027,-1.9066,-1.9112,-1.9162,-1.9224,-1.9273,-1.9379,-1.9391,-1.9447,-1.9435,-1.9519,-1.9444,-1.9447,-1.9438,-1.9435,-1.9442,-1.9535,-1.9538,-1.954,-1.9542,0,-1.8984,-1.898,-1.9033,-1.9087,-1.9131,-1.9173,-1.9211,-1.9244,-1.9235,-1.9281,-1.9347,-1.9385,-1.9461,-1.9523,-1.9577,-1.9595,-1.9568,-1.9565,-1.9586,-1.9594,-1.9593,-1.9596,-1.9339,-1.956,-1.9558,-1.9557,-1.9556,-1.9555,-1.9129,-1.9185,-1.9217,-1.9278,-1.9305,-1.9341,-1.9394,-1.9404,-1.9459,-1.9519,-1.9508,-1.9582,-1.9615,-1.9685,-1.9708,-1.9766,-1.9736,-1.9766,-1.9774,-1.9782,-1.9791,-1.9582,-1.9776,-1.9775,-1.9775,-1.9774,-1.9774,0,-1.9328,-1.9346,-1.9402,-1.9456,-1.9504,-1.9472,-1.9512,-1.9554,-1.962,-1.9653,-1.9702,-1.9777,-1.9837,-1.9853,-1.991,-1.9954,-1.9942,-1.9969,-1.9967,-1.9972,-1.9814,-1.9791,-1.9977,-1.9977,-1.9977,-1.9977,-1.9977,-1.9977,-1.9437,-1.953,-1.953,-1.9636,-1.9653,-1.9726,-1.9752,-1.9785,-1.9811,-1.9897,-1.9946,-1.9955,-1.9981,-2.004,-2.0094,-2.0096,-2.012,-2.0152,-2.0151,-2.0003,-1.9983,-1.9964,-1.9942,-2.0157,-2.0157,-2.0304,-2.0305,-2.0306]},{"header":{"parameterUnit":"m.s-1","parameterCategory":1,"la1":30.2991,"la2":30.254,"lo1":-89.0895,"lo2":-89.0444,"dy":0.0017,"dx":0.0017,"nx":28,"ny":28,"refTime":"2024-12-21T09:00:00:Z","depth":0,"parameterNumber":3,"parameterNumberName":"V-component_of_WINDS"},"data":[0,0,0,0,0,0,0,0,0,0,0,0,0,0,0,0,0,0,0,0,0,0,0,0,0,0,0,0,0,0,0,0,0,0,0,0,0,0,0,0,0,0,0,0,0,0,0,0,0,0,0,0,0,0,0,0,0,0,-5.8574,-5.8575,0,-5.8699,-5.87,-5.8701,-5.8613,-5.8609,-5.8605,-5.8601,-5.8724,-5.8731,-5.8737,0,0,0,0,0,0,0,0,0,0,0,0,0,-5.8253,-5.826,-5.8574,-5.8575,-5.8577,-5.8698,-5.87,-5.8702,-5.8613,-5.8609,-5.8604,-5.8599,-5.8721,-5.873,-5.8738,0,0,0,0,0,0,0,0,0,0,0,0,0,-5.8387,-5.8262,-5.8573,-5.8548,-5.8546,-5.8698,-5.87,-5.8702,-5.8614,-5.8608,-5.8602,-5.8597,-5.8719,-5.8729,-5.8739,-5.8921,0,0,-5.8771,-5.8775,0,0,0,0,0,0,0,0,-5.8379,-5.8398,-5.855,-5.855,-5.8549,-5.8634,-5.8632,-5.8776,-5.8616,-5.8588,-5.8601,-5.8594,-5.8698,-5.871,-5.8746,-5.8927,-5.8932,-5.8772,-5.8778,-5.8783,-5.8786,0,0,0,0,0,0,0,-5.837,-5.8393,-5.8623,-5.8552,-5.8551,-5.8528,-5.854,-5.8659,-5.8675,-5.859,-5.8584,-5.86,-5.8697,-5.8736,-5.8748,-5.8934,-5.8772,-5.8781,-5.8787,-5.8791,-5.9269,-5.9275,0,0,0,0,0,0,-5.8364,-5.8386,-5.8619,-5.8627,-5.8448,-5.8538,-5.8552,-5.8613,-5.8673,-5.8677,-5.8605,-5.8596,-5.8722,-5.8736,-5.8752,-5.8969,-5.8783,-5.8792,-5.8798,-5.9263,-5.9271,-5.9278,0,0,0,0,0,0,-5.8357,-5.8386,-5.8614,-5.8505,-5.8532,-5.855,-5.8619,-5.8618,-5.8658,-5.8685,-5.8687,-5.8643,-5.8718,-5.8738,-5.888,-5.8972,-5.8797,-5.8806,-5.9255,-5.9265,-5.9274,-5.9405,0,0,0,0,0,0,-5.8349,-5.8384,-5.8455,-5.8507,-5.8538,-5.8742,-5.8624,-5.8625,-5.8676,-5.8665,-5.8721,-5.8724,-5.8714,-5.8865,-5.889,-5.8983,-5.8815,-5.9247,-5.926,-5.9271,-5.9392,-5.9418,-5.944,0,0,0,0,0,-5.8338,-5.8486,-5.8459,-5.8488,-5.8627,-5.8747,-5.8765,-5.8752,-5.8684,-5.8755,-5.8772,-5.8723,-5.8958,-5.888,-5.8908,-5.9006,-5.9241,-5.9256,-5.927,-5.9382,-5.9413,-5.9439,0,0,0,0,0,0,-5.8443,-5.8492,-5.8463,-5.8633,-5.8687,-5.8732,-5.8821,-5.8785,-5.8858,-5.8845,-5.8824,-5.8837,-5.8986,-5.901,-5.8922,-5.9184,-5.9088,-5.9109,-5.9164,-5.9194,-5.9217,-5.9208,-5.8823,0,0,0,0,0,-5.8486,-5.8581,-5.8618,-5.8764,-5.8793,-5.8803,-5.8854,-5.884,-5.8894,-5.8916,-5.8943,-5.8996,-5.9082,-5.9139,-5.9219,-5.9395,-5.9405,-5.9476,-5.9499,-5.9518,-5.9537,-5.963,-5.9661,-5.9325,-5.9325,-5.9325,0,0,-5.8576,-5.8614,-5.8676,-5.8787,-5.8827,-5.8924,-5.8822,-5.8929,-5.9001,-5.8931,-5.9068,-5.909,-5.9147,-5.9307,-5.9379,-5.9332,-5.9632,-5.9537,-5.9552,-5.956,-5.9648,-5.968,-5.9708,-5.9335,-5.9333,-5.9332,0,0,-5.8789,-5.8829,-5.8955,-5.8997,-5.9059,-5.9064,-5.9095,-5.9146,-5.9158,-5.9295,-5.9245,-5.9328,-5.9476,-5.9519,-5.9561,-5.9789,-5.9746,-5.9816,-5.9939,-6.003,-6.0057,-6.008,-6.0161,-6.019,-5.9834,-5.9834,-5.9834,0,-5.8892,-5.9039,-5.9023,-5.9135,-5.9184,-5.9127,-5.9253,-5.9294,-5.9379,-5.9414,-5.936,-5.9545,-5.9579,-5.9748,-5.9804,-5.9839,-5.9872,-5.9809,-6.0055,-6.0078,-6.0099,-6.0176,-6.0207,-5.9842,-5.9841,-5.984,-5.9839,0,-5.9162,-5.9264,-5.9358,-5.9443,-5.9503,-5.9621,-5.9622,-5.9684,-5.9664,-5.9674,-5.9813,-5.9853,-5.994,-5.9979,-5.996,-6.0144,-6.0113,-6.0058,-5.9961,-6.014,-6.0211,-6.0241,-5.9854,-5.9851,-5.9848,-5.9846,0,0,-5.9446,-5.9521,-5.9556,-5.9593,-5.9657,-5.9735,-5.9849,-5.9936,-5.9989,-6.0049,-6.0144,-6.027,-6.0219,-6.0266,-6.0251,-6.0331,-6.0509,-6.0265,-6.0266,-6.0309,-6.0713,-6.0755,-6.079,-6.048,-6.0486,-6.049,-6.0708,0,-5.9663,-5.9865,-5.9854,-6.0042,-6.0135,-6.0082,-6.0181,-6.0231,-6.0243,-6.0322,-6.0334,-6.0424,-6.035,-6.0378,-6.0455,-6.0471,-6.059,-6.0455,-6.0566,-6.0571,-6.0554,-6.0827,-6.0872,-6.1076,-6.0736,-6.0741,-6.0745,0,-5.9943,-6.0014,-6.0213,-6.0262,-6.0301,-6.0391,-6.0469,-6.0546,-6.0599,-6.0602,-6.0655,-6.0626,-6.0739,-6.064,-6.0795,-6.0704,-6.0748,-6.0763,-6.077,-6.078,-6.0669,-6.0844,-6.1141,-6.1171,-6.0789,-6.0785,-6.0782,0,-6.013,-6.0275,-6.0412,-6.0446,-6.0507,-6.0571,-6.0599,-6.0647,-6.07,-6.0767,-6.0801,-6.088,-6.0923,-6.0984,-6.0977,-6.0905,-6.1134,-6.1034,-6.1139,-6.1139,-6.1189,-6.1186,-6.1497,-6.1219,-6.1218,-6.1218,-6.1217,0,-6.0373,-6.0496,-6.0497,-6.0581,-6.0717,-6.0702,-6.0837,-6.0857,-6.09,-6.0986,-6.0944,-6.1025,-6.1011,-6.1091,-6.1086,-6.1214,-6.1234,-6.1239,-6.1236,-6.1243,-6.1242,-6.1272,-6.1257,-6.1226,-6.1224,-6.1222,-6.1221,0,-6.0604,-6.061,-6.0756,-6.0803,-6.0817,-6.0915,-6.0953,-6.1032,-6.104,-6.115,-6.1174,-6.1187,-6.128,-6.1279,-6.1383,-6.138,-6.1538,-6.1518,-6.152,-6.1516,-6.1621,-6.1611,-6.1962,-6.2006,-6.1699,-6.1702,-6.1704,0,-6.0759,-6.0853,-6.091,-6.0965,-6.0998,-6.1088,-6.1141,-6.1129,-6.1186,-6.1254,-6.1324,-6.1413,-6.1484,-6.1634,-6.1651,-6.1731,-6.1713,-6.183,-6.1724,-6.1728,-6.1714,-6.1709,-6.1717,-6.1851,-6.1854,-6.1857,-6.1859,0,-6.1033,-6.1031,-6.1111,-6.1193,-6.1258,-6.1321,-6.1379,-6.1426,-6.142,-6.1486,-6.1581,-6.1636,-6.1743,-6.1832,-6.1908,-6.1934,-6.1896,-6.1893,-6.1921,-6.1929,-6.1926,-6.1929,-6.1577,-6.1885,-6.1882,-6.188,-6.1879,-6.1878,-6.1231,-6.1312,-6.1365,-6.1454,-6.1497,-6.1552,-6.1628,-6.1646,-6.1726,-6.1814,-6.1801,-6.1907,-6.1956,-6.2055,-6.2088,-6.2169,-6.2128,-6.2169,-6.2179,-6.219,-6.2201,-6.1913,-6.2183,-6.2182,-6.2182,-6.2181,-6.2181,0,-6.1503,-6.1534,-6.1617,-6.17,-6.177,-6.1729,-6.1791,-6.1852,-6.1946,-6.1996,-6.2067,-6.2175,-6.226,-6.2284,-6.2366,-6.2426,-6.241,-6.2448,-6.2443,-6.2449,-6.2234,-6.2201,-6.2459,-6.2459,-6.2459,-6.2459,-6.2459,-6.2459,-6.1652,-6.1787,-6.1791,-6.1945,-6.1974,-6.2079,-6.2117,-6.2167,-6.2207,-6.2331,-6.2402,-6.2417,-6.2456,-6.254,-6.2616,-6.262,-6.2652,-6.2697,-6.2694,-6.2493,-6.2465,-6.2438,-6.2407,-6.2704,-6.2704,-6.2903,-6.2905,-6.2906]}]]